Regional Weather Roundup
Issued by NWS

Home | Current Version | Previous Version | Graphics & Text | Print | Product List | Glossary On
Versions: 1 2 3 4 5 6 7 8 9 10 11 12 13 14 15 16 17 18 19 20 21 22 23 24 25 26 27 28 29 30 31 32 33 34 35 36 37 38 39 40 41 42 43 44 45 46 47 48 49 50
000
ASUS43 KMPX 182210
RWRMN
WEATHER ROUNDUP FOR MINNESOTA
NATIONAL WEATHER SERVICE TWIN CITIES/CHANHASSEN MN
500 PM CDT FRI AUG 18 2017


NOTE: "FAIR" INDICATES FEW OR NO CLOUDS BELOW 12,000 FEET WITH NO
SIGNIFICANT WEATHER AND/OR OBSTRUCTIONS TO VISIBILITY. N/A MEANS
CURRENT SKY AND/OR WEATHER CONDITIONS ARE NOT AVAILABLE.

MNZ060>063-068>070-182300-
   Twin Cities Metro

CITY           SKY/WX    TMP DP  RH WIND       PRES   REMARKS
TWIN CITIES    PTSUNNY   73  61  65 SW8       29.88F
ST PAUL        CLOUDY    72  64  76 SW8       29.88F
CRYSTAL        PTSUNNY   72  59  63 W6        29.86F
BLAINE         CLOUDY    75  63  64 W7        29.88F
LAKEVILLE      MOSUNNY   70  61  73 CALM      29.89F
EDEN PRAIRIE   PTSUNNY   73  60  63 W8        29.87F
SOUTH ST PAUL  PTSUNNY   73  63  71 CALM      29.88F
LAKE ELMO      FAIR      72  64  78 W5        29.89F
$$
MNZ001>005-007-008-013>017-022>024-027-028-182300-
   Northwest Minnesota

CITY           SKY/WX    TMP DP  RH WIND       PRES   REMARKS
BEMIDJI        CLOUDY    74  59  59 SW10      29.85S
HALLOCK        SUNNY     82  48  30 NW12      29.80F
ROSEAU         SUNNY     81  57  44 W8        29.80F
WARROAD        SUNNY     79  63  57 W9        29.80F
THIEF RVR FALL SUNNY     79  55  43 NW15      29.85S
CROOKSTON      SUNNY     81  54  39 NW12G18   29.84S
FOSSTON        CLOUDY    72  63  73 S7        29.87S
DETROIT LAKES  LGT RAIN  68  57  68 CALM      29.90F
MOORHEAD       SUNNY     75  63  64 W5        29.87S
PARK RAPIDS    LGT RAIN  61  57  87 SW9       29.89F
MAHNOMEN       LGT RAIN  63  57  81 S7        29.88R
$$
MNZ006-009>011-018-025>026-182300-
   North Central Minnesota

CITY           SKY/WX    TMP DP  RH WIND       PRES   REMARKS
BAUDETTE       SUNNY     79  56  45 W7        29.80S
FLAG ISLAND    MOSUNNY   79  55  44 NW3       29.77S HAZE
INTL FALLS     PTSUNNY   74  58  57 W6        29.79S
WASKISH        LGT RAIN  70  61  73 E7        29.84R
BIG FORK       MOSUNNY   81  59  47 SW8       29.82S
LONGVILLE      CLOUDY    66  61  82 SW8       29.88S
GRAND RAPIDS   CLOUDY    72  62  71 SW10G16   29.87R
CRANE LAKE     CLOUDY    75  55  50 NW5       29.81S
ORR            CLOUDY    70  59  68 CALM      29.79S
COOK           CLOUDY    75  55  50 CALM      29.83R
WALKER         FAIR      66  55  69 SW10G17   29.87S
$$
MNZ012-019>021-037-182300-
   Northeast Minnesota

CITY           SKY/WX    TMP DP  RH WIND       PRES   REMARKS
DULUTH         PTSUNNY   70  60  70 W7        29.85S
ELY            CLOUDY    73  55  53 W6        29.82S
HIBBING        CLOUDY    74  58  57 VRB6      29.83S
EVELETH        CLOUDY    73  59  61 SW8       29.85R
DULUTH HARBOR  PTSUNNY   72  66  83 SW9       29.83S
TWO HARBORS    CLOUDY    73  64  73 W7        29.82S
GRAND MARAIS     N/A     68  63  84 W8        29.80S
G MARAIS ARPRT CLOUDY    70  54  56 NW3       29.84S
$$
MNZ029>031-032-039>041-046>048-054>057-064-182300-
   West Central Minnesota

CITY           SKY/WX    TMP DP  RH WIND       PRES   REMARKS
FERGUS FALLS   PTSUNNY   73  59  60 CALM      29.87F
WHEATON        MOSUNNY   72  59  64 N3        29.89S
MORRIS         CLOUDY    72  63  73 E6        29.87R
ALEXANDRIA     CLOUDY    66  61  84 NW3       29.91R
ELBOW LAKE     CLOUDY    69  61  77 SE5       29.89S HAZE
WADENA         MOSUNNY   72  55  56 N3        29.90S
GLENWOOD       SUNNY     72  61  68 CALM      29.90R
APPLETON       PTSUNNY   72  63  73 E6        29.85R
BENSON         CLOUDY    72  63  73 E5        29.88R
ORTONVILLE     CLOUDY    68  64  88 MISG      29.85S
MADISON        TSTM      66  66 100 N17G31    29.86R
WILLMAR        FAIR      73  63  68 SE7       29.88F
$$
MNZ033>034-036-042>043-049>051-058-059-182300-
   Central Minnesota

CITY           SKY/WX    TMP DP  RH WIND       PRES   REMARKS
ST CLOUD       MOSUNNY   73  62  68 SW9       29.88R
SAUK CENTRE    MOCLDY    69  60  71 CALM      29.89R
PAYNESVILLE    MOSUNNY   74  60  61 S3        29.89S
AITKIN         CLOUDY    61  55  82 W6        29.88R
PINE RIVER     CLOUDY    63  57  82 S6        29.92F
BRAINERD       CLOUDY    63  61  93 N5        29.90F
STAPLES        CLOUDY    72  54  53 NW6       29.89S
LONG PRAIRIE   PTSUNNY   68  59  73 W3        29.90R
LITTLE FALLS   CLOUDY    63  55  77 N5        29.90R
LITCHFIELD     SUNNY     75  63  64 CALM      29.89S
BUFFALO        CLOUDY    71  60  69 SW5       29.89S
MAPLE LAKE     CLOUDY    73  64  73 W3        29.89S
HUTCHINSON     SUNNY     74  62  67 S5        29.90F
$$
MNZ037-044-045-052-053-182300-
   East Central Minnesota

CITY           SKY/WX    TMP DP  RH WIND       PRES   REMARKS
PRINCETON      CLOUDY    77  63  61 S5        29.88S
MORA           CLOUDY    72  61  68 W5        29.88F
CAMBRIDGE      CLOUDY    75  61  60 W5        29.88S
RUSH CITY      CLOUDY    71  63  76 CALM      29.88S
MOOSE LAKE     CLOUDY    73  61  64 S7        29.85S
HINCKLEY       FAIR      72  64  78 SW7       29.87S
CLOQUET        CLOUDY    72  59  64 S7        29.85F
MCGREGOR       MOSUNNY   72  61  68 W10G17    29.88R
$$
MNZ071>073-080-081-089-090-097-098-182300-
   Southwest Minnesota

CITY           SKY/WX    TMP DP  RH WIND       PRES   REMARKS
MONTEVIDEO     TSTM      72  64  78 SE6       29.85F
GRANITE FALLS  PTSUNNY   75  65  72 E5        29.86F
CANBY          TSTM      72  62  70 W36G45    29.88R
MARSHALL       CLOUDY    76  62  62 S12       29.84F
REDWOOD FALLS  SUNNY     74  61  63 SE12      29.86F
OLIVIA         MOSUNNY   72  63  73 SE9       29.86F
PIPESTONE      MOSUNNY   77  64  65 SW13      29.88F
WINDOM         SUNNY     79  57  47 S6        29.89F
WORTHINGTON    MOSUNNY   77  62  59 S8        29.90F
JACKSON        MOSUNNY   77  61  57 CALM      29.90F
TRACY          PTSUNNY   77  64  63 S10       29.86F
SLAYTON        PTSUNNY   76  58  52 SW8       29.90F
$$
MNZ065>067-074>077-082>085-091>093-182300-
   South Central Minnesota

CITY           SKY/WX    TMP DP  RH WIND       PRES   REMARKS
MANKATO        MOSUNNY   72  61  68 S6        29.90F
NEW ULM        SUNNY     73  59  60 SE7       29.88F
ST JAMES       SUNNY     73  61  64 SE6       29.90F
FAIRMONT       SUNNY     75  60  59 CALM      29.91F
GLENCOE        PTSUNNY   72  65  78 S3        29.88F
FARIBAULT      SUNNY     73  61  64 S3        29.90F
OWATONNA       SUNNY     72  61  68 CALM      29.90F
WASECA         SUNNY     72  55  56 S7        29.91F
ALBERT LEA     SUNNY     73  61  64 CALM      29.92F
$$
MNZ078>079-086>088-094>096-182300-
   Southeast Minnesota

CITY           SKY/WX    TMP DP  RH WIND       PRES   REMARKS
ROCHESTER      MOSUNNY   68  61  78 SW6       29.92F
RED WING       CLOUDY    72  61  68 W5        29.88F
STANTON        SUNNY     72  62  71 S3        29.89F
DODGE CENTER   SUNNY     70  59  68 SW5       29.92S
WINONA         CLOUDY    70  63  78 W6        29.90S
AUSTIN         SUNNY     70  57  64 CALM      29.92F
PRESTON        CLOUDY    70  57  63 SW3       29.92F
$$
ABBREVIATIONS USED IN REMARKS
   TC - TEMPERATURES IN CELSIUS
  WCI - WIND CHILL INDEX
   HX - HEAT INDEX
  VSB - VISIBILITY
$$



USA.gov is the U.S. government's official web portal to all federal, state and local government web resources and services.